TimeCST,TemperatureF,Dew PointF,Humidity,Sea Level PressureIn,VisibilityMPH,Wind Direction,Wind SpeedMPH,Gust SpeedMPH,PrecipitationIn,Events,Conditions,WindDirDegrees,DateUTC
12:53 AM,36.0,28.9,76,30.30,10.0,Calm,Calm,-,N/A,,Clear,0,2012-11-15 06:53:00
1:53 AM,35.1,28.9,78,30.32,10.0,Calm,Calm,-,N/A,,Clear,0,2012-11-15 07:53:00
2:53 AM,35.1,30.0,82,30.31,10.0,Calm,Calm,-,N/A,,Clear,0,2012-11-15 08:53:00
3:53 AM,34.0,28.0,79,30.30,10.0,Calm,Calm,-,N/A,,Clear,0,2012-11-15 09:53:00
4:53 AM,30.9,27.0,85,30.30,10.0,Calm,Calm,-,N/A,,Clear,0,2012-11-15 10:53:00
5:53 AM,32.0,28.0,85,30.32,10.0,Calm,Calm,-,N/A,,Clear,0,2012-11-15 11:53:00
7:53 AM,34.0,28.9,82,30.35,10.0,Calm,Calm,-,N/A,,Clear,0,2012-11-15 13:53:00
8:53 AM,43.0,32.0,65,30.36,10.0,South,3.5,-,N/A,,Clear,190,2012-11-15 14:53:00
9:53 AM,50.0,28.9,44,30.37,10.0,South,8.1,-,N/A,,Clear,190,2012-11-15 15:53:00
10:53 AM,55.9,28.0,34,30.36,10.0,South,9.2,-,N/A,,Clear,190,2012-11-15 16:53:00
11:53 AM,57.9,27.0,31,30.34,10.0,SSW,9.2,-,N/A,,Clear,200,2012-11-15 17:53:00
12:53 PM,61.0,27.0,27,30.31,10.0,SSW,5.8,-,N/A,,Clear,200,2012-11-15 18:53:00
1:53 PM,62.1,28.0,28,30.30,10.0,SE,6.9,-,N/A,,Clear,140,2012-11-15 19:53:00
2:53 PM,63.0,27.0,26,30.29,10.0,SE,5.8,-,N/A,,Clear,140,2012-11-15 20:53:00
3:53 PM,62.1,28.9,29,30.29,10.0,East,4.6,-,N/A,,Clear,90,2012-11-15 21:53:00
4:53 PM,57.9,28.9,33,30.30,10.0,ESE,8.1,-,N/A,,Clear,120,2012-11-15 22:53:00
5:53 PM,50.0,30.0,46,30.33,10.0,Calm,Calm,-,N/A,,Clear,0,2012-11-15 23:53:00
6:53 PM,46.9,34.0,61,30.34,10.0,Calm,Calm,-,N/A,,Clear,0,2012-11-16 00:53:00
7:53 PM,45.0,34.0,65,30.36,10.0,Calm,Calm,-,N/A,,Clear,0,2012-11-16 01:53:00
8:53 PM,43.0,32.0,65,30.37,10.0,Calm,Calm,-,N/A,,Clear,0,2012-11-16 02:53:00
9:53 PM,39.0,32.0,76,30.38,10.0,Calm,Calm,-,N/A,,Clear,0,2012-11-16 03:53:00
10:53 PM,37.0,30.9,79,30.38,10.0,Calm,Calm,-,N/A,,Clear,0,2012-11-16 04:53:00
11:53 PM,37.0,32.0,82,30.39,10.0,Calm,Calm,-,N/A,,Clear,0,2012-11-16 05:53:00